Regional Weather Roundup
Issued by NWS

Home | Current Version | Previous Version | Graphics & Text | Print | Product List | Glossary On
Versions: 1 2 3 4 5 6 7 8 9 10 11 12 13 14 15 16 17 18 19 20 21 22 23 24 25 26 27 28 29 30 31 32 33 34 35 36 37 38 39 40 41 42 43 44 45 46 47 48 49 50
000
ASUS43 KFSD 181902
RWRSD

WEATHER ROUNDUP FOR SOUTH DAKOTA
NATIONAL WEATHER SERVICE SIOUX FALLS SD
100 PM CST THU DEC 18 2014

NOTE: "FAIR" INDICATES FEW OR NO CLOUDS BELOW 12,000 FEET WITH NO
SIGNIFICANT WEATHER AND/OR OBSTRUCTIONS TO VISIBILITY.


SDZ001>005-009-010-012>017-182000-
NORTHWEST AND NORTH CENTRAL SOUTH DAKOTA

CITY           SKY/WX    TMP DP  RH WIND       PRES   REMARKS
BUFFALO          N/A     33  29  85 W9        29.89F WCI  25
FAITH            N/A     28  23  81 SW14      30.00F WCI  17
MOBRIDGE       CLOUDY    25  23  92 S10       30.04F FOG     WCI  15
$$

SDZ012>016-024>037-041>051-057-063-072>074-182000-
SOUTHWEST AND SOUTH CENTRAL SOUTH DAKOTA

CITY           SKY/WX    TMP DP  RH WIND       PRES   REMARKS
RAPID CTY ARPT SUNNY     36  27  69 E3        29.98F
PIERRE         CLOUDY    26  23  88 SE6       30.08F WCI  19
CUSTER         SUNNY     38  17  42 W12       29.95F
ELLSWORTH AFB  SUNNY     40  28  64 E2        29.97F
PHILIP         CLOUDY    26  21  81 VRB7      30.06F WCI  18
PINE RIDGE     SUNNY     34  22  61 W9        30.02F WCI  27
WINNER         CLOUDY    30  23  75 S8        30.08F WCI  22
$$

SDZ004>011-016>023-039-040-182000-
NORTHEAST SOUTH DAKOTA

CITY           SKY/WX    TMP DP  RH WIND       PRES   REMARKS
ABERDEEN       CLOUDY    24  19  81 S12       30.15F WCI  13
WATERTOWN      CLOUDY    22  17  81 S9        30.14F WCI  12
SISSETON         N/A     19  15  84 S10       30.18  WCI   7
$$

SDZ017-020-022-023-036>040-048>070-182000-
SOUTHEAST SOUTH DAKOTA

CITY           SKY/WX    TMP DP  RH WIND       PRES   REMARKS
SIOUX FALLS    CLOUDY    24  21  88 S7        30.18F WCI  16
HURON          CLOUDY    24  20  84 S9        30.16F WCI  14
MITCHELL         N/A     26  22  84 S8        30.17F WCI  18
YANKTON        CLOUDY    27  21  80 S6        30.20F WCI  20
$$

ABBREVIATIONS USED IN REMARKS
   TC - TEMPERATURE IN CELSIUS
  WCI - WIND CHILL INDEX
   HX - HEAT INDEX
  VSB - VISIBILITY




USA.gov is the U.S. government's official web portal to all federal, state and local government web resources and services.